Regional Weather Roundup
Issued by NWS

Home | Current Version | Previous Version | Graphics & Text | Print | Product List | Glossary On
Versions: 1 2 3 4 5 6 7 8 9 10 11 12 13 14 15 16 17 18 19 20 21 22 23 24 25 26 27 28 29 30 31 32 33 34 35 36 37 38 39 40 41 42 43 44 45 46 47 48 49 50
000
ASUS43 KOAX 241302
RWRNE

WEATHER ROUNDUP FOR NEBRASKA
NATIONAL WEATHER SERVICE OMAHA NE
800 AM CDT FRI MAR 24 2017

NOTES: SATELLITE DATA IS BEING USED TO AUGMENT CLOUD COVER ABOVE
       12000 FEET.
       "FAIR" INDICATES FEW OR NO CLOUDS BELOW 12,000 FEET WITH NO
       SIGNIFICANT WEATHER AND/OR OBSTRUCTIONS TO VISIBILITY.

  * THESE STATIONS DO NOT REPORT WEATHER SUCH AS RAIN...SNOW OR FOG.

NEZ001>004-019>022-054>056-241400-
NEBRASKA PANHANDLE

CITY           SKY/WX    TMP DP  RH WIND       PRES   REMARKS
SCOTTSBLUFF    CLOUDY    41  34  76 N16G24    30.06R
ALLIANCE       CLOUDY    38  36  92 N18       30.01R WCI  28
CHADRON        CLOUDY    40  36  86 NE3       30.07R
KIMBALL        CLOUDY    38  38  99 N23G33    30.00R WCI  28
SIDNEY         LGT RAIN  39  37  92 N23G33    29.96R WCI  28
$$

NEZ057>060-069>072-079>082-241400-
SOUTHWEST NEBRASKA

CITY           SKY/WX    TMP DP  RH WIND       PRES   REMARKS
NORTH PLATTE   LGT RAIN  42  38  85 N22G35    29.89R FOG
IMPERIAL       CLOUDY    42  39  89 N26G43    29.83R
LEXINGTON      LGT RAIN  44  40  86 N20G29    29.83R
MCCOOK         LGT RAIN  47  46  97 NE35G45   29.74F
OGALLALA       LGT RAIN  43  40  91 N23G29    29.91R
$$

NEZ005>010-023>029-035>040-094-241400-
NORTH CENTRAL NEBRASKA

CITY           SKY/WX    TMP DP  RH WIND       PRES   REMARKS
VALENTINE      CLOUDY    41  36  82 N15       29.99R
AINSWORTH      CLOUDY    39  38  97 N20G26    29.96R WCI  30
BROKEN BOW     CLOUDY    41  38  89 N24G33    29.87R
O`NEILL        DRIZZLE   39  38  96 N15G21    29.95R WCI  31
ORD            CLOUDY    41  37  86 N15       29.88R
THEDFORD       CLOUDY    41  39  91 N13       29.95R
$$

NEZ041-046>049-061>064-073>077-083>087-241400-
SOUTH CENTRAL NEBRASKA

CITY           SKY/WX    TMP DP  RH WIND       PRES   REMARKS
GRAND ISLAND   CLOUDY    46  45  96 N20       29.84R
AURORA         CLOUDY    47  46  96 N20G25    29.82R
HASTINGS       CLOUDY    49  47  93 N20G31    29.82R
HEBRON         CLOUDY    56  55  94 NE3       29.75R
HOLDREGE       CLOUDY    45  43  92 N26G36    29.81R
KEARNEY *      CLOUDY    45  39  81 N22G30    29.83R
YORK           CLOUDY    50  50 100 N23       29.81R
$$

NEZ011>018-030>034-042>045-241400-
NORTHEAST NEBRASKA

CITY           SKY/WX    TMP DP  RH WIND       PRES   REMARKS
NORFOLK        CLOUDY    42  40  92 N18       29.87R
ALBION         CLOUDY    44  40  87 N20G29    29.86R
BLAIR          CLOUDY    50  49  96 N17       29.79S FOG
FREMONT        CLOUDY    49  48  97 N9        29.82R
TEKAMAH        CLOUDY    48  45  89 N18       29.81R
WAYNE          DRIZZLE   43  43  99 N12G18    29.86R
$$

NEZ050>053-065>068-078-088>093-241400-
SOUTHEAST NEBRASKA

CITY           SKY/WX    TMP DP  RH WIND       PRES   REMARKS
LINCOLN        CLOUDY    55  53  93 N9        29.80R
OMAHA EPPLEY   CLOUDY    52  49  89 N15       29.78R FOG
BEATRICE       CLOUDY    58  54  85 NE5       29.75R
FALLS CITY     CLOUDY    61  51  70 S6        29.76R
NEBRASKA CITY  LGT RAIN  60  49  67 CALM      29.79R
PLATTSMOUTH    CLOUDY    57  53  85 SE3       29.79R
$$

NEZ044-045-051>053-067-241400-
OMAHA AREA

CITY           SKY/WX    TMP DP  RH WIND       PRES   REMARKS
OMAHA EPPLEY   CLOUDY    52  49  89 N15       29.78R FOG
BLAIR          CLOUDY    50  49  96 N17       29.79S FOG
FREMONT        CLOUDY    49  48  97 N9        29.82R
MILLARD        CLOUDY    57  55  95 NW6       29.80R
OFFUTT AFB     DRIZZLE   56  54  93 SE3       29.79R
PLATTSMOUTH    CLOUDY    57  53  85 SE3       29.79R
WAHOO          CLOUDY    51  49  93 N16       29.80R
$$



USA.gov is the U.S. government's official web portal to all federal, state and local government web resources and services.